Pecos, TX

1:26 AM CDT on April 25, 2017 (GMT -0500)
Pecos Municipal

Weather History for KPEQ - December, 2012

Change the Weather History Date:

Saturday, December 8, 2012

  Actual Average Record
Temperature  
Mean Temperature 56 °F -  
Max Temperature 75 °F 66 °F 82 °F (1950)
Min Temperature 36 °F 29 °F 10 °F (2005)
Degree Days  
Heating Degree Days 10    
Growing Degree Days 6 (Base 50)    
Moisture  
Dew Point 24 °F    
Average Humidity 32    
Maximum Humidity 49    
Minimum Humidity 17    
Precipitation  
Precipitation 0.00 in - - ()
Sea Level Pressure  
Sea Level Pressure 29.87 in    
Wind  
Wind Speed 7 mph (SW)    
Max Wind Speed 23 mph    
Max Gust Speed 29 mph    
Visibility 10 miles    
Events      
Averages and records for this station are not official NWS values.
T = Trace of Precipitation, MM = Missing Value Source: NWS Daily Summary

Daily Weather History Graph

Daily Weather History Graph

Search for Another Location

Airport or City:

Trip Planner

Search our weather history database for the weather conditions in past years. The results will help you decide how hot, cold, wet, or windy it might be!

Date:

Astronomy

Dec. 08, 2012 Rise Set
Actual Time 7:41 AM CST 5:51 PM CST
Civil Twilight 7:14 AM CST 6:17 PM CST
Nautical Twilight 6:44 AM CST 6:48 PM CST
Astronomical Twilight 6:14 AM CST 7:17 PM CST
Moon 2:24 AM CST (12/8) 2:08 PM CST (12/8)
Length of Visible Light 11h 03m
Length of Day
10h 10m
Waning Crescent, 28% of the Moon is Illuminated
Dec 8
Waning Crescent
Dec 13
New
Dec 19
First Quarter
Dec 28
Full
Jan 4
Last Quarter

Hourly Weather History & Observations

Time (CST) Temp. Windchill Dew Point Humidity Pressure Visibility Wind Dir Wind Speed Gust Speed Precip Events Conditions
12:15 AM 42.6 °F 39.0 °F 20.1 °F 41% 29.88 in 10.0 mi WSW 5.8 mph - N/A   Clear
12:35 AM 41.2 °F 37.3 °F 19.2 °F 41% 29.88 in 10.0 mi SE 5.8 mph - N/A   Clear
12:55 AM 42.4 °F 38.8 °F 19.8 °F 40% 29.88 in 10.0 mi SSW 5.8 mph - N/A   Clear
1:15 AM 43.0 °F 39.5 °F 19.8 °F 40% 29.88 in 10.0 mi SE 5.8 mph - N/A   Clear
1:35 AM 40.3 °F 37.1 °F 19.8 °F 44% 29.88 in 10.0 mi WSW 4.6 mph - N/A   Clear
1:55 AM 38.1 °F 34.6 °F 19.2 °F 47% 29.88 in 10.0 mi SE 4.6 mph - N/A   Clear
2:15 AM 39.2 °F 35.0 °F 19.4 °F 45% 29.88 in 10.0 mi SW 5.8 mph - N/A   Clear
2:35 AM 38.1 °F - 19.4 °F 47% 29.88 in 10.0 mi Calm Calm - N/A   Clear
2:55 AM 39.7 °F - 20.3 °F 46% 29.88 in 10.0 mi Calm Calm - N/A   Clear
3:15 AM 47.5 °F - 21.6 °F 36% 29.88 in 10.0 mi Calm Calm - N/A   Clear
3:35 AM 38.1 °F - 19.2 °F 47% 29.88 in 10.0 mi Calm Calm - N/A   Clear
3:55 AM 36.9 °F 34.3 °F 19.4 °F 49% 29.88 in 10.0 mi SSW 3.5 mph - N/A   Clear
4:15 AM 37.2 °F 32.6 °F 19.4 °F 49% 29.88 in 10.0 mi South 5.8 mph - N/A   Clear
4:35 AM 37.4 °F 32.8 °F 19.4 °F 48% 29.88 in 10.0 mi SW 5.8 mph - N/A   Clear
5:15 AM 37.9 °F 32.7 °F 20.1 °F 49% 29.88 in 10.0 mi SW 6.9 mph - N/A   Clear
5:35 AM 43.0 °F 39.5 °F 21.2 °F 42% 29.89 in 10.0 mi West 5.8 mph - N/A   Clear
5:55 AM 44.1 °F - 21.7 °F 41% 29.89 in 10.0 mi Calm Calm - N/A   Clear
6:15 AM 44.4 °F 42.9 °F 20.5 °F 39% 29.90 in 10.0 mi West 3.5 mph - N/A   Clear
6:35 AM 43.3 °F 40.7 °F 20.8 °F 41% 29.90 in 10.0 mi SW 4.6 mph - N/A   Clear
6:55 AM 42.4 °F - 20.3 °F 41% 29.91 in 10.0 mi Calm Calm - N/A   Clear
7:15 AM 43.3 °F 39.9 °F 21.2 °F 41% 29.91 in 10.0 mi WSW 5.8 mph - N/A   Clear
7:35 AM 42.1 °F 40.2 °F 19.8 °F 41% 29.92 in 10.0 mi East 3.5 mph - N/A   Clear
7:55 AM 42.4 °F 38.8 °F 21.6 °F 44% 29.92 in 10.0 mi WSW 5.8 mph - N/A   Clear
8:15 AM 46.2 °F 42.2 °F 22.8 °F 40% 29.92 in 10.0 mi WSW 8.1 mph - N/A   Clear
8:35 AM 48.9 °F - 24.1 °F 38% 29.93 in 10.0 mi West 11.5 mph - N/A   Clear
8:55 AM 51.6 °F - 25.0 °F 36% 29.93 in 10.0 mi WNW 8.1 mph - N/A   Clear
9:15 AM 52.7 °F - 25.3 °F 35% 29.93 in 10.0 mi Calm Calm - N/A   Clear
9:35 AM 55.6 °F - 26.1 °F 32% 29.94 in 10.0 mi East 5.8 mph - N/A   Clear
9:55 AM 57.4 °F - 27.1 °F 31% 29.94 in 10.0 mi Calm Calm - N/A   Clear
10:15 AM 59.4 °F - 27.9 °F 30% 29.94 in 10.0 mi East 3.5 mph - N/A   Clear
10:35 AM 62.1 °F - 28.9 °F 29% 29.95 in 10.0 mi Calm Calm - N/A   Clear
10:55 AM 66.7 °F - 30.9 °F 26% 29.94 in 10.0 mi Calm Calm - N/A   Clear
11:15 AM 71.1 °F - 32.0 °F 24% 29.93 in 10.0 mi WSW 11.5 mph - N/A   Clear
11:35 AM 72.0 °F - 32.0 °F 23% 29.92 in 10.0 mi West 16.1 mph 19.6 mph N/A   Clear
11:55 AM 73.4 °F - 30.9 °F 21% 29.91 in 10.0 mi WSW 23.0 mph - N/A   Clear
12:15 PM 73.4 °F - 30.7 °F 21% 29.91 in 10.0 mi WSW 20.7 mph 28.8 mph N/A   Clear
12:55 PM 74.3 °F - 29.5 °F 19% 29.88 in 10.0 mi WSW 18.4 mph 27.6 mph N/A   Clear
1:15 PM 74.7 °F - 28.6 °F 18% 29.88 in 10.0 mi WSW 19.6 mph 27.6 mph N/A   Clear
1:35 PM 74.7 °F - 28.6 °F 18% 29.85 in 10.0 mi West 20.7 mph 24.2 mph N/A   Clear
1:55 PM 75.2 °F - 28.4 °F 18% 29.85 in 10.0 mi WSW 18.4 mph 25.3 mph N/A   Clear
2:15 PM 75.0 °F - 28.4 °F 18% 29.83 in 10.0 mi West 12.7 mph 23.0 mph N/A   Clear
2:35 PM 75.4 °F - 28.9 °F 18% 29.82 in 10.0 mi WSW 15.0 mph 19.6 mph N/A   Clear
2:55 PM 75.6 °F - 28.4 °F 18% 29.81 in 10.0 mi West 16.1 mph 23.0 mph N/A   Clear
3:15 PM 75.7 °F - 28.2 °F 17% 29.81 in 10.0 mi WSW 18.4 mph - N/A   Clear
3:35 PM 75.4 °F - 27.9 °F 17% 29.81 in 10.0 mi WSW 17.3 mph 23.0 mph N/A   Clear
3:55 PM 75.4 °F - 27.1 °F 17% 29.80 in 10.0 mi WSW 18.4 mph 23.0 mph N/A   Clear
4:15 PM 74.8 °F - 27.5 °F 17% 29.80 in 10.0 mi WSW 15.0 mph - N/A   Clear
4:35 PM 74.5 °F - 27.3 °F 17% 29.80 in 10.0 mi SW 16.1 mph 21.9 mph N/A   Clear
4:55 PM 73.6 °F - 26.6 °F 17% 29.80 in 10.0 mi WSW 11.5 mph - N/A   Clear
5:15 PM 72.1 °F - 26.1 °F 18% 29.81 in 10.0 mi WSW 12.7 mph - N/A   Clear
5:35 PM 70.5 °F - 26.1 °F 19% 29.81 in 10.0 mi WSW 9.2 mph - N/A   Clear
5:55 PM 67.5 °F - 25.5 °F 21% 29.81 in 10.0 mi WSW 8.1 mph - N/A   Clear
6:15 PM 63.5 °F - 24.8 °F 23% 29.82 in 10.0 mi SW 5.8 mph - N/A   Clear
6:35 PM 57.7 °F - 24.1 °F 27% 29.82 in 10.0 mi SSW 8.1 mph - N/A   Clear
6:55 PM 59.2 °F - 24.8 °F 27% 29.83 in 10.0 mi WSW 9.2 mph - N/A   Clear
7:15 PM 57.2 °F - 24.4 °F 28% 29.84 in 10.0 mi WSW 9.2 mph - N/A   Clear
7:35 PM 55.8 °F - 24.1 °F 29% 29.84 in 10.0 mi West 9.2 mph - N/A   Clear
7:55 PM 54.9 °F - 23.9 °F 30% 29.84 in 10.0 mi SW 9.2 mph - N/A   Clear
8:15 PM 54.1 °F - 24.1 °F 31% 29.85 in 10.0 mi SW 9.2 mph - N/A   Clear
8:35 PM 54.5 °F - 24.4 °F 31% 29.86 in 10.0 mi SW 5.8 mph - N/A   Clear
8:55 PM 53.6 °F - 24.3 °F 32% 29.86 in 10.0 mi WSW 3.5 mph - N/A   Clear
9:15 PM 55.4 °F - 24.8 °F 31% 29.86 in 10.0 mi Calm Calm - N/A   Clear
9:35 PM 55.4 °F - 25.7 °F 32% 29.86 in 10.0 mi SW 10.4 mph - N/A   Clear
9:55 PM 55.8 °F - 25.7 °F 31% 29.86 in 10.0 mi SW 9.2 mph - N/A   Clear
10:15 PM 54.7 °F - 25.5 °F 32% 29.86 in 10.0 mi SW 10.4 mph - N/A   Clear
10:35 PM 52.7 °F - 25.0 °F 34% 29.86 in 10.0 mi SW 9.2 mph - N/A   Clear
10:55 PM 48.6 °F - 23.7 °F 38% 29.86 in 10.0 mi SSW 10.4 mph - N/A   Clear
11:15 PM 48.6 °F - 23.0 °F 37% 29.86 in 10.0 mi SSW 9.2 mph - N/A   Clear
11:35 PM 48.2 °F - 22.6 °F 37% 29.86 in 10.0 mi SSW 9.2 mph - N/A   Clear
11:55 PM 48.2 °F - 22.8 °F 37% 29.86 in 10.0 mi SSW 10.4 mph - N/A   Clear